User: anonymous   Login
Location: USNO
(38.9242°N, 77.0663°W)
Time: 02:07:24
(UTC-04:00)
Language:

Tiangong 2 - Orbit

View from above orbital plane
View from above orbital plane
View from above satellite
View from above satellite

Ground track
Ground track

The orbit data is extracted from the following two-line orbital elements,

1 41765U 16057A   17296.77312500  .00006664  00000-0  86996-4 0  9996
2 41765  42.7844 310.9733 0002170  31.9306 317.3810 15.59285923 63047
Epoch (UTC): 23 October 2017 18:33:18
Eccentricity: 0.0002170
inclination: 42.7844°
perigee height: 388 km
apogee height: 391 km
right ascension of ascending node: 310.9733°
argument of perigee: 31.9306°
revolutions per day: 15.59285923
mean anomaly at epoch: 317.3810°
orbit number at epoch: 6304

The dashed part of the orbit path shows where the satellite is in the earth's shadow,  

DLR